This is the latest recevied weather packets stored in our database for station/object DL1SEW-6. If no packets are shown the sender has not sent any weather packets the latest 10 day(s).
| Time | Temp. | Humidity | Pressure | Rain* | Wind** | Luminosity | Snow |
|---|---|---|---|---|---|---|---|
| 1778006405 | 11.67° C | 84% | 1007 hPa | 0.25 mm | - | 2 W/m² | - |
| 1778005505 | 12.22° C | 84% | 1006.9 hPa | 0.25 mm | - | 9 W/m² | - |
| 1778004604 | 12.22° C | 85% | 1006.7 hPa | 0.25 mm | - | 11 W/m² | - |
| 1778003704 | 12.22° C | 85% | 1007 hPa | 0 mm | - | 14 W/m² | - |
| 1778002804 | 12.22° C | 84% | 1006.9 hPa | 0.25 mm | - | 14 W/m² | - |
| 1778001909 | 12.78° C | 83% | 1007.1 hPa | 1.52 mm | - | 18 W/m² | - |
| 1778001010 | 13.33° C | 82% | 1007 hPa | 1.52 mm | - | 20 W/m² | - |
| 1778000109 | 13.89° C | 78% | 1006.9 hPa | 1.52 mm | - | 32 W/m² | - |
| 1777999208 | 15° C | 72% | 1007 hPa | 1.52 mm | - | 17 W/m² | - |
| 1777998308 | 16.67° C | 70% | 1006.7 hPa | 0 mm | - | 11 W/m² | - |
| 1777997408 | 17.22° C | 69% | 1006.6 hPa | 0 mm | - | 149 W/m² | - |
| 1777996508 | 17.22° C | 70% | 1006.5 hPa | 0 mm | - | 270 W/m² | - |
| 1777995609 | 17.22° C | 68% | 1006.7 hPa | 0 mm | - | 476 W/m² | - |
| 1777994709 | 16.67° C | 73% | 1006.7 hPa | 0 mm | - | 636 W/m² | - |
| 1777993808 | 15.56° C | 76% | 1006.7 hPa | 0 mm | - | 505 W/m² | - |
| 1777992907 | 15.56° C | 78% | 1006.8 hPa | 0 mm | - | 398 W/m² | - |
| 1777992007 | 15° C | 80% | 1006.6 hPa | 0 mm | - | 282 W/m² | - |
| 1777991107 | 15° C | 77% | 1006.8 hPa | 0 mm | - | 286 W/m² | - |
| 1777989307 | 14.44° C | 78% | 1006.9 hPa | 0.51 mm | - | 322 W/m² | - |
| 1777988406 | 14.44° C | 77% | 1007.1 hPa | 0.51 mm | - | 225 W/m² | - |
| 1777987506 | 14.44° C | 82% | 1007.3 hPa | 0.51 mm | - | 167 W/m² | - |
| 1777986606 | 14.44° C | 82% | 1007.6 hPa | 0.51 mm | - | 111 W/m² | - |
| 1777985706 | 14.44° C | 82% | 1007.6 hPa | 0.51 mm | - | 127 W/m² | - |
| 1777984806 | 14.44° C | 82% | 1007.8 hPa | 0.51 mm | - | 138 W/m² | - |
| 1777983907 | 14.44° C | 82% | 1008 hPa | 0.76 mm | - | 145 W/m² | - |
* Rain latest hour (hover to see other rain measurements)
** Current wind speed in m/s (hover to see current wind gust speed)